Pecos, TX

1:19 PM CST on February 23, 2018 (GMT -0600)
Pecos Municipal

Weather History for KPEQ - October, 2010

Change the Weather History Date:

Wednesday, October 20, 2010

  Actual Average Record
Temperature  
Mean Temperature 70 °F -  
Max Temperature 85 °F 78 °F 98 °F (2007)
Min Temperature 55 °F 45 °F 30 °F (1989)
Cooling Degree Days 5    
Growing Degree Days 20 (Base 50)    
Moisture  
Dew Point 55 °F    
Average Humidity 64    
Maximum Humidity 86    
Minimum Humidity 35    
Precipitation  
Precipitation 0.00 in - - ()
Sea Level Pressure  
Sea Level Pressure 30.05 in    
Wind  
Wind Speed 6 mph (East)    
Max Wind Speed 16 mph    
Max Gust Speed 23 mph    
Visibility 10 miles    
Events Rain    
Averages and records for this station are not official NWS values.
T = Trace of Precipitation, MM = Missing Value Source: NWS Daily Summary

Daily Weather History Graph

Daily Weather History Graph

Search for Another Location

Airport or City:

Trip Planner

Search our weather history database for the weather conditions in past years. The results will help you decide how hot, cold, wet, or windy it might be!

Date:

Astronomy

Oct. 20, 2010 Rise Set
Actual Time 8:00 AM CDT 7:16 PM CDT
Civil Twilight 7:35 AM CDT 7:41 PM CDT
Nautical Twilight 7:07 AM CDT 8:09 PM CDT
Astronomical Twilight 6:39 AM CDT 8:37 PM CDT
Moon 5:47 PM CDT (10/20) 5:50 AM CDT (10/20)
Length of Visible Light 12h 05m
Length of Day
11h 15m
Waxing Gibbous, 95% of the Moon is Illuminated
Oct 20
Waxing Gibbous
Oct 22
Full
Oct 30
Last Quarter
Nov 5
New
Nov 13
First Quarter

Hourly Weather History & Observations

Time (CDT) Temp. Heat Index Dew Point Humidity Pressure Visibility Wind Dir Wind Speed Gust Speed Precip Events Conditions
12:05 AM 65.3 °F - 47.7 °F 53% 30.03 in 10.0 mi ENE 6.9 mph - N/A   Clear
12:25 AM 64.2 °F - 49.3 °F 58% 30.03 in 10.0 mi ENE 6.9 mph - N/A   Clear
12:45 AM 63.9 °F - 51.1 °F 63% 30.03 in 10.0 mi East 4.6 mph - N/A   Clear
1:05 AM 63.5 °F - 51.8 °F 66% 30.03 in 10.0 mi Calm Calm - N/A   Clear
1:25 AM 63.7 °F - 51.6 °F 65% 30.03 in 10.0 mi ENE 3.5 mph - N/A   Clear
1:45 AM 62.4 °F - 51.3 °F 67% 30.03 in 10.0 mi ENE 5.8 mph - N/A   Clear
2:05 AM 62.1 °F - 52.3 °F 70% 30.03 in 10.0 mi ENE 5.8 mph - N/A   Clear
2:25 AM 61.9 °F - 53.2 °F 73% 30.03 in 10.0 mi NE 5.8 mph - N/A   Clear
2:45 AM 62.1 °F - 54.1 °F 75% 30.02 in 10.0 mi NE 5.8 mph - N/A   Clear
3:05 AM 61.9 °F - 54.5 °F 77% 30.02 in 10.0 mi NE 5.8 mph - N/A   Clear
3:25 AM 61.7 °F - 55.2 °F 79% 30.02 in 10.0 mi NE 8.1 mph - N/A   Clear
3:45 AM 62.6 °F - 55.8 °F 78% 30.02 in 10.0 mi NE 6.9 mph - N/A   Clear
4:05 AM 62.6 °F - 55.8 °F 78% 30.02 in 10.0 mi NE 6.9 mph - N/A   Clear
4:25 AM 61.9 °F - 55.6 °F 80% 30.02 in 10.0 mi NE 5.8 mph - N/A   Clear
4:45 AM 61.7 °F - 55.6 °F 80% 30.03 in 10.0 mi NE 5.8 mph - N/A   Clear
5:05 AM 61.7 °F - 55.6 °F 80% 30.02 in 10.0 mi NE 4.6 mph - N/A   Clear
5:25 AM 61.2 °F - 55.4 °F 81% 30.03 in 10.0 mi NE 4.6 mph - N/A   Clear
5:45 AM 60.8 °F - 55.2 °F 82% 30.03 in 10.0 mi NE 6.9 mph - N/A   Clear
6:05 AM 60.8 °F - 55.0 °F 81% 30.03 in 10.0 mi ENE 3.5 mph - N/A   Clear
6:25 AM 59.0 °F - 54.3 °F 84% 30.04 in 10.0 mi South 3.5 mph - N/A   Clear
6:45 AM 55.9 °F - 51.4 °F 85% 30.05 in 10.0 mi WSW 3.5 mph - N/A   Clear
7:05 AM 56.1 °F - 51.8 °F 85% 30.06 in 10.0 mi WSW 5.8 mph - N/A   Clear
7:25 AM 56.3 °F - 52.2 °F 86% 30.07 in 10.0 mi WSW 5.8 mph - N/A   Clear
7:45 AM 55.9 °F - 51.8 °F 86% 30.07 in 10.0 mi West 4.6 mph - N/A   Clear
8:05 AM 56.3 °F - 52.2 °F 86% 30.07 in 10.0 mi West 3.5 mph - N/A   Clear
8:25 AM 56.8 °F - 52.5 °F 85% 30.08 in 10.0 mi West 3.5 mph - N/A   Clear
8:45 AM 58.1 °F - 53.2 °F 84% 30.09 in 10.0 mi Calm Calm - N/A   Clear
9:05 AM 59.5 °F - 54.0 °F 82% 30.10 in 10.0 mi Calm Calm - N/A   Clear
9:25 AM 61.7 °F - 55.6 °F 80% 30.11 in 10.0 mi Calm Calm - N/A   Clear
9:45 AM 64.2 °F - 56.3 °F 75% 30.12 in 5.0 mi Calm Calm - N/A   Haze
10:05 AM 65.5 °F - 56.8 °F 74% 30.12 in 10.0 mi Calm Calm - N/A   Scattered Clouds
10:25 AM 66.2 °F - 57.0 °F 72% 30.13 in 7.0 mi Calm Calm - N/A   Mostly Cloudy
10:45 AM 68.7 °F - 57.7 °F 68% 30.13 in 5.0 mi East 3.5 mph - N/A   Haze
11:05 AM 68.9 °F - 58.1 °F 68% 30.13 in 7.0 mi ESE 6.9 mph - N/A   Scattered Clouds
11:25 AM 69.3 °F - 58.1 °F 68% 30.13 in 7.0 mi ESE 4.6 mph - N/A   Scattered Clouds
11:45 AM 71.2 °F - 58.5 °F 64% 30.13 in 5.0 mi East 4.6 mph - N/A   Haze
12:05 PM 72.5 °F - 59.2 °F 63% 30.12 in 10.0 mi East 5.8 mph - N/A   Scattered Clouds
12:25 PM 71.6 °F - 59.0 °F 64% 30.12 in 10.0 mi East 4.6 mph - N/A   Mostly Cloudy
12:45 PM 72.1 °F - 59.7 °F 65% 30.12 in 10.0 mi ESE 8.1 mph - N/A   Overcast
1:05 PM 72.9 °F - 60.8 °F 66% 30.11 in 7.0 mi ESE 6.9 mph - N/A Rain Light Rain
1:25 PM 75.4 °F - 60.4 °F 60% 30.10 in 10.0 mi East 6.9 mph - N/A   Scattered Clouds
1:45 PM 76.5 °F - 60.4 °F 58% 30.08 in 10.0 mi East 4.6 mph - N/A   Mostly Cloudy
2:25 PM 81.0 °F 81.3 °F 59.0 °F 47% 30.05 in 10.0 mi ESE 12.7 mph 18.4 mph N/A   Mostly Cloudy
2:45 PM 81.0 °F 81.2 °F 58.5 °F 46% 30.04 in 10.0 mi ESE 16.1 mph - N/A   Mostly Cloudy
3:05 PM 83.1 °F 82.9 °F 58.5 °F 43% 30.02 in 10.0 mi East 15.0 mph 19.6 mph N/A   Scattered Clouds
3:25 PM 83.5 °F 83.1 °F 58.1 °F 42% 30.01 in 10.0 mi ESE 13.8 mph 20.7 mph N/A   Scattered Clouds
3:45 PM 85.6 °F 84.8 °F 57.7 °F 39% 30.00 in 10.0 mi ESE 13.8 mph 21.9 mph N/A   Scattered Clouds
4:05 PM 82.4 °F 82.3 °F 58.5 °F 44% 29.99 in 10.0 mi East 13.8 mph 17.3 mph N/A   Scattered Clouds
4:25 PM 84.4 °F 83.7 °F 57.7 °F 40% 29.99 in 10.0 mi East 11.5 mph 23.0 mph N/A   Scattered Clouds
4:45 PM 84.6 °F 83.5 °F 56.5 °F 38% 29.98 in 10.0 mi East 13.8 mph - N/A   Scattered Clouds
5:05 PM 85.1 °F 83.6 °F 54.5 °F 35% 29.98 in 10.0 mi East 16.1 mph 19.6 mph N/A   Scattered Clouds
5:25 PM 85.1 °F 83.6 °F 54.5 °F 35% 29.98 in 10.0 mi East 13.8 mph - N/A   Clear
5:45 PM 84.9 °F 83.4 °F 54.7 °F 35% 29.97 in 10.0 mi East 15.0 mph 21.9 mph N/A   Clear
6:05 PM 83.8 °F 82.6 °F 54.5 °F 36% 29.97 in 10.0 mi East 16.1 mph - N/A   Clear
6:25 PM 83.3 °F 82.2 °F 54.5 °F 37% 29.97 in 10.0 mi East 15.0 mph - N/A   Clear
6:45 PM 82.0 °F 81.4 °F 54.7 °F 39% 29.96 in 10.0 mi East 13.8 mph - N/A   Clear
7:05 PM 80.8 °F 80.5 °F 54.5 °F 40% 29.96 in 10.0 mi East 11.5 mph - N/A   Clear
7:25 PM 79.0 °F - 54.1 °F 42% 29.96 in 10.0 mi East 9.2 mph - N/A   Clear
7:45 PM 77.9 °F - 53.1 °F 42% 29.97 in 10.0 mi East 9.2 mph - N/A   Clear
8:05 PM 77.5 °F - 53.1 °F 42% 29.97 in 10.0 mi ESE 11.5 mph - N/A   Clear
8:25 PM 77.0 °F - 53.2 °F 44% 29.97 in 10.0 mi ESE 12.7 mph 19.6 mph N/A   Clear
8:45 PM 76.3 °F - 54.0 °F 46% 29.97 in 10.0 mi ESE 12.7 mph 18.4 mph N/A   Clear
9:05 PM 75.7 °F - 54.5 °F 48% 29.98 in 10.0 mi ESE 11.5 mph - N/A   Clear
9:25 PM 75.2 °F - 54.5 °F 48% 29.98 in 10.0 mi ESE 13.8 mph - N/A   Clear
9:45 PM 74.3 °F - 54.9 °F 51% 29.99 in 10.0 mi ESE 10.4 mph - N/A   Clear
10:05 PM 73.0 °F - 54.7 °F 52% 30.00 in 10.0 mi ESE 9.2 mph - N/A   Clear
10:25 PM 72.7 °F - 55.0 °F 54% 30.01 in 10.0 mi ESE 10.4 mph - N/A   Clear
10:45 PM 72.9 °F - 55.4 °F 54% 30.01 in 10.0 mi ESE 16.1 mph - N/A   Clear
11:05 PM 72.0 °F - 55.4 °F 56% 30.01 in 10.0 mi ESE 11.5 mph - N/A   Clear
11:25 PM 71.6 °F - 55.8 °F 57% 30.00 in 10.0 mi ESE 12.7 mph - N/A   Clear
11:45 PM 70.9 °F - 56.3 °F 60% 30.00 in 10.0 mi ESE 9.2 mph - N/A   Clear